Regional Weather Roundup
Issued by NWS

Home | Current Version | Previous Version | Text Only | Print | Product List | Glossary On
Versions: 1 2 3 4 5 6 7 8 9 10 11 12 13 14 15 16 17 18 19 20 21 22 23 24 25 26 27 28 29 30 31 32 33 34 35 36 37 38 39 40 41 42 43 44 45 46 47 48 49 50
000
ASUS43 KMKX 291210
RWRWI

WISCONSIN REGIONAL WEATHER ROUNDUP
NATIONAL WEATHER SERVICE MILWAUKEE/SULLIVAN WI
700 AM CDT SUN MAR 29 2015

NOTE: "FAIR" INDICATES FEW OR NO CLOUDS BELOW 12,000 FEET WITH NO
SIGNIFICANT WEATHER AND/OR OBSTRUCTIONS TO VISIBILITY.

WIZ001-002-006>008-014>016-023>028-291300-
NORTHWEST WISCONSIN

CITY           SKY/WX    TMP DP  RH WIND       PRES   REMARKS
SUPERIOR ARPT  CLOUDY    36  28  73 SW20      29.57F WCI  25
6HR MIN TEMP:  35; 6HR MAX TEMP:  38;

ASHLAND        CLOUDY    36  19  50 S23G36    29.60F WCI  24
6HR MIN TEMP:  34; 6HR MAX TEMP:  36;

HAYWARD        FRZ RAIN  33  26  75 S17       29.64F WCI  22
6HR MIN TEMP:  32; 6HR MAX TEMP:  35; 6HR PCP:  0.05;

SIREN          CLOUDY    35  30  82 S15G25    29.63F WCI  25
6HR MIN TEMP:  34; 6HR MAX TEMP:  36; 6HR PCP:  0.01;

CUMBERLAND     MIX PCPN  32  28  86 S14       29.66F WCI  22
RICE LAKE      MIX PCPN  32  29  87 S13G20    29.70F WCI  23
6HR MIN TEMP:  32; 6HR MAX TEMP:  35;

CHETEK         MIX PCPN  32  29  88 SE13G18   29.70F WCI  22
6HR MIN TEMP:  32; 6HR MAX TEMP:  34; 6HR PCP:  0.09;

LADYSMITH      LGT RAIN  32  26  77 S14G21    29.73F WCI  22
6HR MIN TEMP:  32; 6HR MAX TEMP:  33; 6HR PCP:  0.01;

EAU CLAIRE     FRZ RAIN  32  26  78 S16       29.72F WCI  21
6HR MIN TEMP:  32; 6HR MAX TEMP:  35; 6HR PCP:  0.02;

MENOMONIE      MIX PCPN  32  32  99 SE9       29.73F WCI  25
6HR MIN TEMP:  32; 6HR MAX TEMP:  36; 6HR PCP:  0.07;

NEW RICHMOND   LGT RAIN  33  30  88 S14       29.67F WCI  23
6HR MIN TEMP:  33; 6HR MAX TEMP:  36; 6HR PCP:  0.10;

OSCEOLA        CLOUDY    34  32  92 S13G18    29.68F WCI  25
6HR MIN TEMP:  33; 6HR MAX TEMP:  37; 6HR PCP:  0.07;

$$

WIZ003>005-009-010-017-018-291300-
NORTH CENTRAL WISCONSIN

CITY           SKY/WX    TMP DP  RH WIND       PRES   REMARKS
MANITOWISH WTR MOCLDY    31  17  57 S18G26    29.68F WCI  19
6HR MIN TEMP:  29; 6HR MAX TEMP:  31;

ARBOR VITAE    MOCLDY    32  18  56 S17G26    29.71F WCI  21
6HR MIN TEMP:  32; 6HR MAX TEMP:  32;

WOODRUFF       MOCLDY    32  18  56 S17G26    29.71F WCI  21
6HR MIN TEMP:  32; 6HR MAX TEMP:  32;

RHINELANDER    PTCLDY    30  15  53 S23G30    29.77F WCI  17
6HR MIN TEMP:  29; 6HR MAX TEMP:  31;

EAGLE RIVER    PTCLDY    31  14  49 S9G18     29.73F WCI  22
6HR MIN TEMP:  29; 6HR MAX TEMP:  31;

LAND O LAKES   PTCLDY    31  16  53 S10G23    29.71F WCI  22
6HR MIN TEMP:  30; 6HR MAX TEMP:  31;

PHILLIPS       CLOUDY    31  18  57 S21G26    29.69F WCI  19
6HR MIN TEMP:  30; 6HR MAX TEMP:  32;

TOMAHAWK       MOCLDY    28  16  59 S8        29.77F WCI  20
6HR MIN TEMP:  28; 6HR MAX TEMP:  30;

MEDFORD        MOCLDY    30  19  63 S21       29.76F WCI  17
6HR MIN TEMP:  28; 6HR MAX TEMP:  31;

MERRILL        MOCLDY    30  16  55 S8G18     29.81F WCI  23
6HR MIN TEMP:  30; 6HR MAX TEMP:  32;

$$

WIZ029-030-035-036-043>047-291300-
CENTRAL WISCONSIN

CITY           SKY/WX    TMP DP  RH WIND       PRES   REMARKS
WAUSAU         MOCLDY    30  16  56 S14G23    29.83F WCI  19
6HR MIN TEMP:  30; 6HR MAX TEMP:  32;

MOSINEE        CLEAR     28  18  64 S13       29.86F WCI  18
MARSHFIELD     MOCLDY    31  17  56 S15       29.82F WCI  20
6HR MIN TEMP:  30; 6HR MAX TEMP:  32;

STEVENS POINT  MOCLDY    29  15  55 S13       29.89F WCI  19
6HR MIN TEMP:  28; 6HR MAX TEMP:  30;

WAUPACA        MOCLDY    32  17  54 S12       29.93F WCI  23
6HR MIN TEMP:  32; 6HR MAX TEMP:  33;

WAUTOMA        MOCLDY    30  17  58 S9        29.92F WCI  22
6HR MIN TEMP:  30; 6HR MAX TEMP:  33;

WISC RAPIDS    MOCLDY    31  15  52 S13G18    29.90F WCI  21
6HR MIN TEMP:  30; 6HR MAX TEMP:  32;

CAMP DOUGLAS   MOCLDY    33  19  55 S13       29.88F WCI  24
6HR MIN TEMP:  32; 6HR MAX TEMP:  34;

$$

WIZ011>013-019>022-031-037>040-048>050-291300-
NORTHEAST WISCONSIN

CITY           SKY/WX    TMP DP  RH WIND       PRES   REMARKS
ANTIGO         PTCLDY    28  17  63 S14       29.84F WCI  16
6HR MIN TEMP:  28; 6HR MAX TEMP:  29;

SHAWANO        PTCLDY    32  18  56 S6        29.94F WCI  26
6HR MIN TEMP:  32; 6HR MAX TEMP:  33;

OCONTO         PTCLDY    31  17  56 S12       29.97F WCI  22
6HR MIN TEMP:  28; 6HR MAX TEMP:  31;

STURGEON BAY   MOCLDY    28  16  59 S15       30.01F WCI  17
6HR MIN TEMP:  27; 6HR MAX TEMP:  30;

GREEN BAY      PTCLDY    32  19  58 S14G22    29.99F WCI  22
6HR MIN TEMP:  28; 6HR MAX TEMP:  32;

MANITOWOC      MOCLDY    30  18  60 S10       30.04R WCI  21
6HR MIN TEMP:  27; 6HR MAX TEMP:  31;

APPLETON       MOCLDY    28  18  64 S20       29.99F WCI  15
CLINTONVILLE   PTCLDY    30  18  59 S12       29.94F WCI  21
OSHKOSH        PTCLDY    30  18  60 S16       29.98F WCI  19
6HR MIN TEMP:  24; 6HR MAX TEMP:  30;

$$

WIZ032>034-041-042-053>061-291300-
SOUTHWEST WISCONSIN

CITY           SKY/WX    TMP DP  RH WIND       PRES   REMARKS
LA CROSSE      FRZ RAIN  34  27  75 S22G33    29.81F WCI  22
6HR MIN TEMP:  34; 6HR MAX TEMP:  37; 6HR PCP: TRACE;

SPARTA         CLOUDY    34  19  55 S12G20    29.85F WCI  25
6HR MIN TEMP:  32; 6HR MAX TEMP:  34;

VIROQUA        CLOUDY    31  24  73 S18G25    29.84F WCI  20
6HR MIN TEMP:  30; 6HR MAX TEMP:  32;

BOSCOBEL       MOCLDY    34  20  56 S12G20    29.95F WCI  25
6HR MIN TEMP:  33; 6HR MAX TEMP:  34;

PRAIRIE DU CHI MIX PCPN  34  22  61 S6        29.92F WCI  29
6HR MIN TEMP:  33; 6HR MAX TEMP:  35;

PLATTEVILLE    PTCLDY    32  22  66 S17       29.98S WCI  21
6HR MIN TEMP:  30; 6HR MAX TEMP:  32;

$$

WIZ056-057-062-063-064-067-068-291300-
SOUTH CENTRAL WISCONSIN

CITY           SKY/WX    TMP DP  RH WIND       PRES   REMARKS
REEDSBURG      MOCLDY    32  19  58 S14       29.94F WCI  22
6HR MIN TEMP:  31; 6HR MAX TEMP:  32;

BARABOO/DELLS  MOCLDY    32  18  56 S20G28    29.89F WCI  20
6HR MIN TEMP:  30; 6HR MAX TEMP:  32;

LONE ROCK      FAIR      33  19  56 S15       29.98F WCI  23
6HR MIN TEMP:  31; 6HR MAX TEMP:  34;

MINERAL POINT  PTCLDY    32  21  64 S16G23    29.96S WCI  21
MADISON        MOCLDY    31  18  58 S14G22    29.99F WCI  21
6HR MIN TEMP:  31; 6HR MAX TEMP:  32;

MIDDLETON      PTCLDY    32  18  55 S14G20    29.98F WCI  22
6HR MIN TEMP:  32; 6HR MAX TEMP:  33;

WATERTOWN      CLEAR     29  19  65 S12G18    30.03F WCI  19
6HR MIN TEMP:  26; 6HR MAX TEMP:  29;

MONROE         PTCLDY    30  21  69 S20G25    29.98F WCI  18
JANESVILLE     CLEAR     30  18  59 S14G20    30.06S WCI  20
$$

WIZ051-052-058>065-066-070>072-291300-
SOUTHEAST WISCONSIN

CITY           SKY/WX    TMP DP  RH WIND       PRES   REMARKS
MILWAUKEE      MOCLDY    30  14  51 SW9       30.09R WCI  22
6HR MIN TEMP:  25; 6HR MAX TEMP:  30;

WAUKESHA       CLEAR     27  16  63 S12G23    30.28R WCI  16
MILWAUKEE/TIMM MOCLDY    32  14  47 SW10      30.09R WCI  24
RACINE         MOCLDY    30  14  51 S12G21    30.11R WCI  20
6HR MIN TEMP:  27; 6HR MAX TEMP:  31;

BURLINGTON     MOCLDY    29  16  59 S10       30.09S WCI  19
6HR MIN TEMP:  24; 6HR MAX TEMP:  29;

KENOSHA        MOCLDY    31  16  54 SW16G24   30.10R WCI  20
6HR MIN TEMP:  25; 6HR MAX TEMP:  31;

FOND DU LAC    PTCLDY    30  17  58 S15G25    30.00F WCI  19
6HR MIN TEMP:  27; 6HR MAX TEMP:  31;

SHEBOYGAN      PTCLDY    30  16  56 S14       30.04S WCI  19
6HR MIN TEMP:  22; 6HR MAX TEMP:  30;

WEST BEND      PTCLDY    30  14  51 S9        30.05R WCI  22
JUNEAU         PTCLDY    29  18  62 S16       30.02F WCI  17
6HR MIN TEMP:  26; 6HR MAX TEMP:  29;

$$

LSZ147-162-291300-
LAKE SUPERIOR

STATION/POSITION TIME  TEMP    WIND        PRES    WAVE
                       AIR SEA DIR/SP/G            HT/PER
                 (UTC) (F)     (DEG/KT/KT) (MB)    (FT/S)
DEVILS ISLAND    1200   36     190/ 10/ 13 1002.5F
PORT WING        1101   38     180/ 21     1002.4F
SAXON HARBOR     1201   38     190/ 17     1002.0F
$$

LMZ867-665-643>646-291300-
LAKE MICHIGAN

STATION/POSITION TIME  TEMP    WIND        PRES    WAVE


USA.gov is the U.S. government's official web portal to all federal, state and local government web resources and services.